This is the latest recevied weather packets stored in our database for station/object XE2VP-WX. If no packets are shown the sender has not sent any weather packets the latest 1 day(s).
| Time | Temp. | Humidity | Pressure | Rain* | Wind** | Luminosity | Snow |
|---|---|---|---|---|---|---|---|
| 1778001035 | 30° C | 43% | 939.6 hPa | 0 mm | 0.89 m/s, 171° | 932 W/m² | - |
| 1778000975 | 30° C | 43% | 939.6 hPa | 0 mm | 0.89 m/s, 175° | 930 W/m² | - |
| 1778000915 | 30° C | 44% | 939.6 hPa | 0 mm | 0.89 m/s, 0° | 927 W/m² | - |
| 1778000856 | 30° C | 44% | 939.6 hPa | 0 mm | 0.89 m/s, 243° | 918 W/m² | - |
| 1778000795 | 30° C | 45% | 939.7 hPa | 0 mm | 0.89 m/s, 226° | 924 W/m² | - |
| 1778000735 | 29.44° C | 46% | 939.7 hPa | 0 mm | 0.89 m/s, 248° | 923 W/m² | - |
| 1778000675 | 29.44° C | 46% | 939.7 hPa | 0 mm | 0.89 m/s, 26° | 927 W/m² | - |
| 1778000615 | 29.44° C | 46% | 939.7 hPa | 0 mm | 0.89 m/s, 124° | 925 W/m² | - |
| 1778000555 | 29.44° C | 46% | 939.7 hPa | 0 mm | 0.89 m/s, 154° | 835 W/m² | - |
| 1778000494 | 29.44° C | 46% | 939.7 hPa | 0 mm | 0.89 m/s, 34° | 816 W/m² | - |
| 1778000434 | 29.44° C | 47% | 939.7 hPa | 0 mm | 0.89 m/s, 23° | 881 W/m² | - |
| 1778000374 | 29.44° C | 47% | 939.7 hPa | 0 mm | 0.89 m/s, 352° | 835 W/m² | - |
| 1778000314 | 29.44° C | 48% | 939.7 hPa | 0 mm | 0.89 m/s, 46° | 839 W/m² | - |
| 1778000254 | 29.44° C | 48% | 939.8 hPa | 0 mm | 0.89 m/s, 0° | 881 W/m² | - |
| 1778000190 | 29.44° C | 47% | 939.8 hPa | 0 mm | 0.89 m/s, 53° | 871 W/m² | - |
| 1778000129 | 29.44° C | 46% | 939.7 hPa | 0 mm | 0.89 m/s, 67° | 852 W/m² | - |
| 1778000069 | 29.44° C | 46% | 939.7 hPa | 0 mm | 0.89 m/s, 99° | 894 W/m² | - |
| 1778000010 | 29.44° C | 46% | 939.7 hPa | 0 mm | 0.45 m/s, 0° | 905 W/m² | - |
| 1777999949 | 29.44° C | 46% | 939.7 hPa | 0 mm | 0.89 m/s, 0° | 905 W/m² | - |
| 1777999888 | 29.44° C | 46% | 939.7 hPa | 0 mm | 0.89 m/s, 236° | 895 W/m² | - |
| 1777999827 | 28.89° C | 46% | 939.7 hPa | 0 mm | 0.89 m/s, 299° | 885 W/m² | - |
| 1777999768 | 28.89° C | 47% | 939.7 hPa | 0 mm | 0.89 m/s, 0° | 827 W/m² | - |
| 1777999707 | 28.89° C | 47% | 939.7 hPa | 0 mm | 0.89 m/s, 0° | 813 W/m² | - |
| 1777999644 | 28.89° C | 47% | 939.7 hPa | 0 mm | 0.89 m/s, 99° | 821 W/m² | - |
| 1777999583 | 28.89° C | 48% | 939.8 hPa | 0 mm | 0.89 m/s, 129° | 863 W/m² | - |
* Rain latest hour (hover to see other rain measurements)
** Current wind speed in m/s (hover to see current wind gust speed)